Weather History for EIDW - June, 2012

Change the Weather History Date:

Tuesday, June 12, 2012

  Actual Average Record
Temperature  
Mean Temperature 52 °F -  
Max Temperature 56 °F 64 °F 73 °F (2000)
Min Temperature 48 °F 51 °F 35 °F (2011)
Degree Days  
Heating Degree Days 13    
Growing Degree Days 2 (Base 50)    
Moisture  
Dew Point 47 °F    
Average Humidity 81    
Maximum Humidity 100    
Minimum Humidity 61    
Precipitation  
Precipitation 0.02 in 0.07 in - ()
Sea Level Pressure  
Sea Level Pressure 29.86 in    
Wind  
Wind Speed 5 mph ()    
Max Wind Speed 10 mph    
Max Gust Speed -    
Visibility 6.4 miles    
Events Rain    
Averages and records for this station are not official NWS values.
T = Trace of Precipitation, MM = Missing Value Source: Averaged Metar Reports

Daily Weather History Graph

Daily Weather History Graph

Search for Another Location

Airport or City:

Trip Planner

Search our weather history database for the weather conditions in past years. The results will help you decide how hot, cold, wet, or windy it might be!

Date:

Astronomy

Jun. 12, 2012 Rise Set
Actual Time 4:56 AM IST 9:53 PM IST
Civil Twilight 4:04 AM IST 10:46 PM IST
Nautical Twilight 2:33 AM IST 12:18 AM IST
Astronomical Twilight Sun does not rise Sun does not rise
Moon 1:27 AM IST (6/12) 2:43 PM IST (6/12)
Length of Visible Light 18h 41m
Length of Day
16h 57m
Last Quarter, 40% of the Moon is Illuminated
Jun 12
Last Quarter
Jun 19
New
Jun 27
First Quarter
Jul 3
Full
Jul 11
Last Quarter

Hourly Weather History & Observations

Time (IST) Temp. Dew Point Humidity Pressure Visibility Wind Dir Wind Speed Gust Speed Precip Events Conditions
12:00 AM 51.8 °F 50.0 °F 94% 29.80 in 6.2 mi NE 4.6 mph - N/A   Mostly Cloudy
12:30 AM 50.0 °F 50.0 °F 100% 29.80 in 6.2 mi NNE 4.6 mph - N/A   Mostly Cloudy
1:00 AM 50 °F 48 °F 92% 29.81 in 12 mi NNW 2.2 mph - -   Scattered Clouds
1:00 AM 50.0 °F 48.2 °F 94% 29.80 in 6.2 mi Variable 2.3 mph - N/A   Mostly Cloudy
1:30 AM 50.0 °F 48.2 °F 94% 29.80 in 6.2 mi North 1.2 mph - N/A   Mostly Cloudy
2:00 AM 48.2 °F 48.2 °F 100% 29.80 in 6.2 mi North 2.3 mph - N/A   Mostly Cloudy
2:30 AM 50.0 °F 48.2 °F 94% 29.80 in 6.2 mi NE 3.5 mph - N/A   Mostly Cloudy
3:00 AM 48.2 °F 48.2 °F 100% 29.80 in 6.2 mi NE 3.5 mph - N/A   Mostly Cloudy
3:30 AM 50.0 °F 48.2 °F 94% 29.80 in 6.2 mi Calm Calm - N/A   Mostly Cloudy
4:00 AM 50.0 °F 48.2 °F 94% 29.80 in 6.2 mi WNW 3.5 mph - N/A   Mostly Cloudy
4:30 AM 48.2 °F 48.2 °F 100% 29.80 in 5.6 mi North 3.5 mph - N/A   Mostly Cloudy
5:00 AM 50.0 °F 48.2 °F 94% 29.80 in 5.6 mi NNE 3.5 mph - N/A   Mostly Cloudy
5:30 AM 50.0 °F 50.0 °F 100% 29.80 in 5.6 mi ENE 3.5 mph - N/A   Mostly Cloudy
6:00 AM 51.8 °F 50.0 °F 94% 29.80 in 6.2 mi East 6.9 mph - N/A   Mostly Cloudy
6:30 AM 51.8 °F 50.0 °F 94% 29.80 in 6.2 mi ESE 5.8 mph - N/A   Mostly Cloudy
7:00 AM 52 °F 49 °F 87% 29.83 in 11 mi ESE 6.7 mph - -   Partly Cloudy
7:00 AM 51.8 °F 50.0 °F 94% 29.83 in 6.2 mi ESE 5.8 mph - N/A   Mostly Cloudy
7:30 AM 51.8 °F 48.2 °F 88% 29.83 in 6.2 mi ESE 6.9 mph - N/A   Mostly Cloudy
8:00 AM 53.6 °F 48.2 °F 82% 29.83 in 6.2 mi SE 5.8 mph - N/A   Mostly Cloudy
8:30 AM 53.6 °F 48.2 °F 82% 29.83 in 6.2 mi ESE 9.2 mph - N/A   Mostly Cloudy
9:00 AM 55.4 °F 46.4 °F 72% 29.83 in 6.2 mi ESE 9.2 mph - N/A   Mostly Cloudy
9:30 AM 55.4 °F 46.4 °F 72% 29.83 in 6.2 mi SE 8.1 mph - N/A   Mostly Cloudy
10:00 AM 55.4 °F 48.2 °F 77% 29.86 in 6.2 mi ESE 9.2 mph - N/A   Mostly Cloudy
10:30 AM 55.4 °F 48.2 °F 77% 29.86 in 6.2 mi ESE 9.2 mph - N/A   Mostly Cloudy
11:00 AM 55.4 °F 46.4 °F 72% 29.86 in 6.2 mi SE 8.1 mph - N/A   Mostly Cloudy
11:30 AM 55.4 °F 46.4 °F 72% 29.86 in 6.2 mi ESE 9.2 mph - N/A   Mostly Cloudy
12:00 PM 55.4 °F 46.4 °F 72% 29.86 in 6.2 mi SE 9.2 mph - N/A   Mostly Cloudy
12:30 PM 55.4 °F 46.4 °F 72% 29.86 in 6.2 mi SE 10.4 mph - N/A   Mostly Cloudy
1:00 PM 55 °F 45 °F 61% 29.89 in 22 mi ESE 8.9 mph - - Rain Light Rain
1:00 PM 55.4 °F 44.6 °F 67% 29.89 in 6.2 mi ESE 9.2 mph - N/A   Mostly Cloudy
1:30 PM 55.4 °F 44.6 °F 67% 29.89 in 6.2 mi ESE 9.2 mph - N/A   Mostly Cloudy
2:00 PM 55.4 °F 44.6 °F 67% 29.89 in 6.2 mi SE 9.2 mph - N/A   Mostly Cloudy
2:30 PM 55.4 °F 44.6 °F 67% 29.89 in 6.2 mi East 9.2 mph - N/A   Mostly Cloudy
3:00 PM 55.4 °F 46.4 °F 72% 29.89 in 6.2 mi East 9.2 mph - N/A   Mostly Cloudy
3:30 PM 55.4 °F 46.4 °F 72% 29.89 in 6.2 mi ESE 8.1 mph - N/A   Mostly Cloudy
4:00 PM 55.4 °F 44.6 °F 67% 29.89 in 6.2 mi SSE 9.2 mph - N/A   Mostly Cloudy
4:30 PM 55.4 °F 44.6 °F 67% 29.89 in 6.2 mi ESE 8.1 mph - N/A   Mostly Cloudy
5:00 PM 57.2 °F 44.6 °F 63% 29.89 in 6.2 mi ESE 8.1 mph - N/A   Mostly Cloudy
5:30 PM 57.2 °F 44.6 °F 63% 29.89 in 6.2 mi SE 6.9 mph - N/A   Mostly Cloudy
6:00 PM 55.4 °F 44.6 °F 67% 29.89 in 6.2 mi ESE 8.1 mph - N/A   Mostly Cloudy
6:30 PM 55.4 °F 44.6 °F 67% 29.89 in 6.2 mi East 8.1 mph - N/A   Mostly Cloudy
7:00 PM 54 °F 46 °F 65% 29.93 in 37 mi ESE 8.9 mph - -   Partly Cloudy
7:00 PM 53.6 °F 46.4 °F 77% 29.92 in 6.2 mi ESE 9.2 mph - N/A   Mostly Cloudy
7:30 PM 53.6 °F 46.4 °F 77% 29.92 in 6.2 mi ESE 6.9 mph - N/A Rain Light Rain Showers
8:00 PM 53.6 °F 44.6 °F 72% 29.92 in 6.2 mi ESE 4.6 mph - N/A Rain Light Rain Showers
8:30 PM 51.8 °F 46.4 °F 82% 29.92 in 6.2 mi SE 4.6 mph - N/A Rain Light Rain
9:00 PM 51.8 °F 46.4 °F 82% 29.92 in 6.2 mi Variable 1.2 mph - N/A Rain Light Rain
9:30 PM 51.8 °F 48.2 °F 88% 29.92 in 6.2 mi East 3.5 mph - N/A Rain Light Rain
10:00 PM 51.8 °F 48.2 °F 88% 29.95 in 6.2 mi ESE 4.6 mph - N/A Rain Light Rain
10:30 PM 51.8 °F 48.2 °F 88% 29.95 in 6.2 mi East 4.6 mph - N/A   Mostly Cloudy
11:00 PM 50.0 °F 46.4 °F 87% 29.95 in 6.2 mi ESE 4.6 mph - N/A   Mostly Cloudy
11:30 PM 51.8 °F 48.2 °F 88% 29.95 in 6.2 mi ESE 4.6 mph - N/A   Mostly Cloudy